Litchfield, MN

9:17 AM CST on February 26, 2017 (GMT -0600)
Litchfield Municipal

Weather History for KLJF - June, 2012

Change the Weather History Date:

Sunday, June 3, 2012

  Actual Average Record
Temperature  
Mean Temperature 65 °F -  
Max Temperature 75 °F 77 °F 91 °F (1968)
Min Temperature 55 °F 51 °F 36 °F (1969)
Growing Degree Days 15 (Base 50)    
Moisture  
Dew Point 50 °F    
Average Humidity 59    
Maximum Humidity 82    
Minimum Humidity 38    
Precipitation  
Precipitation 0.00 in - - ()
Sea Level Pressure  
Sea Level Pressure 29.81 in    
Wind  
Wind Speed 3 mph (SE)    
Max Wind Speed 13 mph    
Max Gust Speed 17 mph    
Visibility 10 miles    
Events      
Averages and records for this station are not official NWS values.
T = Trace of Precipitation, MM = Missing Value Source: NWS Daily Summary

Daily Weather History Graph

Daily Weather History Graph

Search for Another Location

Airport or City:

Trip Planner

Search our weather history database for the weather conditions in past years. The results will help you decide how hot, cold, wet, or windy it might be!

Date:

Astronomy

Jun. 03, 2012 Rise Set
Actual Time 5:32 AM CDT 9:00 PM CDT
Civil Twilight 4:56 AM CDT 9:36 PM CDT
Nautical Twilight 4:08 AM CDT 10:25 PM CDT
Astronomical Twilight 3:06 AM CDT 11:27 PM CDT
Moon 8:25 PM CDT (6/3) 4:44 AM CDT (6/3)
Length of Visible Light 16h 40m
Length of Day
15h 27m
Waxing Gibbous, 99% of the Moon is Illuminated
Jun 3
Waxing Gibbous
Jun 4
Full
Jun 11
Last Quarter
Jun 19
New
Jun 26
First Quarter

Hourly Weather History & Observations

Time (CDT) Temp. Dew Point Humidity Pressure Visibility Wind Dir Wind Speed Gust Speed Precip Events Conditions
12:13 AM 59.0 °F 48.2 °F 67% 29.80 in 10.0 mi Calm Calm - N/A   Clear
12:33 AM 55.4 °F 50.0 °F 82% 29.80 in 10.0 mi Calm Calm - N/A   Scattered Clouds
12:53 AM 55.4 °F 48.2 °F 77% 29.81 in 10.0 mi Calm Calm - N/A   Clear
1:12 AM 55.4 °F 48.2 °F 77% 29.81 in 10.0 mi Calm Calm - N/A   Clear
1:33 AM 57.2 °F 48.2 °F 72% 29.80 in 10.0 mi Calm Calm - N/A   Scattered Clouds
1:53 AM 55.4 °F 48.2 °F 77% 29.81 in 10.0 mi Calm Calm - N/A   Clear
2:13 AM 57.2 °F 48.2 °F 72% 29.81 in 10.0 mi Calm Calm - N/A   Clear
2:33 AM 57.2 °F 46.4 °F 67% 29.81 in 10.0 mi Calm Calm - N/A   Clear
2:53 AM 55.4 °F 46.4 °F 72% 29.80 in 10.0 mi Calm Calm - N/A   Clear
3:13 AM 55.4 °F 46.4 °F 72% 29.79 in 10.0 mi Calm Calm - N/A   Clear
3:33 AM 55.4 °F 48.2 °F 77% 29.79 in 10.0 mi Calm Calm - N/A   Scattered Clouds
3:53 AM 55.4 °F 48.2 °F 77% 29.79 in 10.0 mi Calm Calm - N/A   Scattered Clouds
4:13 AM 55.4 °F 46.4 °F 72% 29.79 in 10.0 mi Calm Calm - N/A   Clear
4:33 AM 55.4 °F 48.2 °F 77% 29.79 in 10.0 mi Calm Calm - N/A   Clear
4:53 AM 55.4 °F 48.2 °F 77% 29.80 in 10.0 mi Calm Calm - N/A   Scattered Clouds
5:13 AM 55.4 °F 46.4 °F 72% 29.81 in 10.0 mi Calm Calm - N/A   Clear
5:33 AM 57.2 °F 48.2 °F 72% 29.80 in 10.0 mi Calm Calm - N/A   Clear
5:53 AM 57.2 °F 48.2 °F 72% 29.80 in 10.0 mi Calm Calm - N/A   Clear
6:13 AM 57.2 °F 48.2 °F 72% 29.80 in 10.0 mi Calm Calm - N/A   Clear
6:33 AM 57.2 °F 51.8 °F 82% 29.80 in 10.0 mi Calm Calm - N/A   Clear
6:53 AM 60.8 °F 51.8 °F 72% 29.80 in 10.0 mi Calm Calm - N/A   Clear
7:13 AM 60.8 °F 51.8 °F 72% 29.80 in 10.0 mi Calm Calm - N/A   Clear
7:33 AM 60.8 °F 51.8 °F 72% 29.81 in 10.0 mi SW 3.5 mph - N/A   Scattered Clouds
7:53 AM 62.6 °F 51.8 °F 68% 29.81 in 10.0 mi Calm Calm - N/A   Clear
8:13 AM 62.6 °F 51.8 °F 68% 29.82 in 10.0 mi SW 4.6 mph - N/A   Clear
8:33 AM 64.4 °F 51.8 °F 64% 29.82 in 10.0 mi SW 3.5 mph - N/A   Clear
8:53 AM 66.2 °F 53.6 °F 64% 29.82 in 10.0 mi SW 3.5 mph - N/A   Scattered Clouds
9:13 AM 66.2 °F 51.8 °F 60% 29.82 in 10.0 mi SSW 4.6 mph - N/A   Scattered Clouds
9:33 AM 68.0 °F 51.8 °F 56% 29.83 in 10.0 mi WSW 4.6 mph - N/A   Scattered Clouds
9:53 AM 68.0 °F 51.8 °F 56% 29.83 in 10.0 mi Calm Calm - N/A   Scattered Clouds
10:13 AM 66.2 °F 50.0 °F 56% 29.83 in 10.0 mi SW 5.8 mph - N/A   Mostly Cloudy
10:33 AM 66.2 °F 51.8 °F 60% 29.83 in 10.0 mi WSW 5.8 mph - N/A   Mostly Cloudy
10:53 AM 66.2 °F 51.8 °F 60% 29.83 in 10.0 mi WSW 5.8 mph - N/A   Mostly Cloudy
11:13 AM 66.2 °F 51.8 °F 60% 29.82 in 10.0 mi SSW 5.8 mph - N/A   Mostly Cloudy
11:33 AM 66.2 °F 51.8 °F 60% 29.83 in 10.0 mi SW 4.6 mph - N/A   Overcast
11:53 AM 68.0 °F 51.8 °F 56% 29.83 in 10.0 mi Calm Calm - N/A   Overcast
12:13 PM 68.0 °F 51.8 °F 56% 29.83 in 10.0 mi SSE 3.5 mph - N/A   Overcast
12:33 PM 69.8 °F 53.6 °F 56% 29.83 in 10.0 mi SE 3.5 mph - N/A   Mostly Cloudy
12:53 PM 71.6 °F 51.8 °F 50% 29.82 in 10.0 mi SSE 4.6 mph - N/A   Scattered Clouds
1:12 PM 71.6 °F 51.8 °F 50% 29.82 in 10.0 mi SE 6.9 mph - N/A   Scattered Clouds
1:33 PM 73.4 °F 48.2 °F 41% 29.82 in 10.0 mi SSE 5.8 mph - N/A   Scattered Clouds
1:53 PM 73.4 °F 48.2 °F 41% 29.80 in 10.0 mi SSE 5.8 mph - N/A   Scattered Clouds
2:13 PM 73.4 °F 50.0 °F 44% 29.80 in 10.0 mi SSE 5.8 mph - N/A   Clear
2:33 PM 73.4 °F 48.2 °F 41% 29.79 in 10.0 mi SSE 6.9 mph - N/A   Clear
2:53 PM 75.2 °F 50.0 °F 41% 29.80 in 10.0 mi SSE 6.9 mph - N/A   Clear
3:13 PM 75.2 °F 48.2 °F 38% 29.80 in 10.0 mi SE 12.7 mph 17.3 mph N/A   Scattered Clouds
3:33 PM 75.2 °F 48.2 °F 38% 29.80 in 10.0 mi SE 5.8 mph 9.2 mph N/A   Scattered Clouds
3:53 PM 75.2 °F 50.0 °F 41% 29.80 in 10.0 mi ESE 8.1 mph - N/A   Scattered Clouds
4:13 PM 75.2 °F 50.0 °F 41% 29.80 in 10.0 mi ESE 10.4 mph - N/A   Scattered Clouds
4:33 PM 73.4 °F 48.2 °F 41% 29.80 in 10.0 mi SE 11.5 mph - N/A   Scattered Clouds
4:53 PM 75.2 °F 50.0 °F 41% 29.80 in 10.0 mi ESE 11.5 mph 16.1 mph N/A   Mostly Cloudy
5:13 PM 75.2 °F 50.0 °F 41% 29.79 in 10.0 mi ESE 11.5 mph - N/A   Scattered Clouds
5:33 PM 75.2 °F 48.2 °F 38% 29.79 in 10.0 mi SE 11.5 mph - N/A   Clear
5:53 PM 75.2 °F 50.0 °F 41% 29.79 in 10.0 mi ESE 11.5 mph - N/A   Clear
6:13 PM 75.2 °F 50.0 °F 41% 29.78 in 10.0 mi ESE 9.2 mph - N/A   Clear
6:33 PM 75.2 °F 51.8 °F 44% 29.79 in 10.0 mi East 10.4 mph - N/A   Clear
6:53 PM 73.4 °F 51.8 °F 47% 29.80 in 10.0 mi East 10.4 mph - N/A   Clear
7:13 PM 73.4 °F 51.8 °F 47% 29.80 in 10.0 mi East 9.2 mph - N/A   Scattered Clouds
7:33 PM 73.4 °F 51.8 °F 47% 29.81 in 10.0 mi East 10.4 mph - N/A   Scattered Clouds
7:53 PM 71.6 °F 51.8 °F 50% 29.81 in 10.0 mi ESE 8.1 mph - N/A   Scattered Clouds
8:13 PM 71.6 °F 50.0 °F 46% 29.81 in 10.0 mi East 9.2 mph - N/A   Mostly Cloudy
8:33 PM 71.6 °F 51.8 °F 50% 29.81 in 10.0 mi East 6.9 mph - N/A   Mostly Cloudy
8:53 PM 69.8 °F 50.0 °F 49% 29.82 in 10.0 mi ESE 8.1 mph - N/A   Scattered Clouds
9:13 PM 66.2 °F 51.8 °F 60% 29.82 in 10.0 mi ESE 6.9 mph - N/A   Mostly Cloudy
9:32 PM 66.2 °F 51.8 °F 60% 29.83 in 10.0 mi East 5.8 mph - N/A   Overcast
9:53 PM 66.2 °F 53.6 °F 64% 29.84 in 10.0 mi East 4.6 mph - N/A   Overcast
10:13 PM 66.2 °F 53.6 °F 64% 29.84 in 10.0 mi East 4.6 mph - N/A   Mostly Cloudy
10:32 PM 64.4 °F 53.6 °F 68% 29.85 in 10.0 mi ESE 4.6 mph - N/A   Mostly Cloudy
10:53 PM 64.4 °F 53.6 °F 68% 29.85 in 10.0 mi East 3.5 mph - N/A   Overcast
11:13 PM 66.2 °F 53.6 °F 64% 29.85 in 10.0 mi East 4.6 mph - N/A   Overcast
11:33 PM 64.4 °F 53.6 °F 68% 29.85 in 10.0 mi East 3.5 mph - N/A   Mostly Cloudy
11:53 PM 64.4 °F 53.6 °F 68% 29.85 in 10.0 mi East 4.6 mph - N/A   Overcast